Home   Weather   Monaco   Past weeks

Flag for Monaco Past Weather in Monaco, Monaco — Yesterday and Last 2 Weeks

Now
50 °F

Scattered clouds.


Feels Like: 45 °F
Forecast: 42 / 57 °F
Wind: 14 mph from North

Location: Nice Airport

Current Time: Dec 5, 2016 at 9:40:37 am

Latest Report: Dec 5, 2016 at 9:00 am


Visibility: N/A

Pressure: 30.27 "Hg

Humidity: 54%

Dew Point: 34 °F

Location of MonacoLocation

Past Weather in Monaco — Graph

°F

Monaco Temperature Yesterday

Maximum temperature yesterday: 63 °F (at 1:30 pm)
Minimum temperature yesterday: 48 °F (at 6:35 am)
Average temperature yesterday: 54 °F

High & Low Weather Summary for the Past Weeks

 TemperatureHumidityPressure
High66 °F (Nov 23, 1:30 pm)94% (Nov 21, 12:00 am)30.51 "Hg (Nov 21, 12:00 am)
Low41 °F (Nov 30, 7:30 am)41% (Nov 20, 10:00 am)29.68 "Hg (Nov 24, 11:30 pm)
Average54 °F74%30.05 "Hg
* Reported Nov 20 8:00 am — Dec 5 8:00 am, Monaco, Weather by CustomWeather, © 2016

Note: Actual official high and low records may vary slightly from our data, if they occured in-between our weather recording intervals... More about our weather records

Advertising

Monaco Weather History for the Previous 24 Hours

Scroll right to see more
 ConditionsComfort  
Time TempWeatherWind HumidityBarometerVisibility
8:00 am
Mon, Dec 5
50 °FPartly sunny.13 mph54%30.24 "HgN/A
7:30 am50 °FPassing clouds.14 mph54%30.24 "HgN/A
7:00 am48 °FPassing clouds.10 mph62%30.24 "HgN/A
6:30 am48 °FPassing clouds.12 mph62%30.24 "HgN/A
6:00 am48 °FClear.12 mph62%30.24 "Hg10 mi
5:30 am46 °FClear.9 mph66%30.24 "Hg10 mi
5:00 am48 °FClear.8 mph62%30.24 "Hg10 mi
4:30 am48 °FClear.10 mph62%30.24 "Hg10 mi
4:00 am48 °FClear.10 mph62%30.24 "Hg10 mi
3:30 am48 °FClear.10 mph62%30.24 "Hg10 mi
3:00 am48 °FClear.10 mph62%30.24 "Hg10 mi
2:30 am48 °FClear.9 mph62%30.24 "Hg10 mi
2:00 am48 °FClear.9 mph62%30.24 "Hg10 mi
1:30 am48 °FClear.9 mph62%30.24 "Hg10 mi
1:00 am48 °FClear.10 mph62%30.24 "Hg10 mi
12:30 am48 °FClear.12 mph66%30.24 "Hg10 mi
12:00 am48 °FClear.12 mph66%30.24 "Hg10 mi
11:30 pm
Sun, Dec 4
50 °FClear.9 mph62%30.24 "Hg10 mi
11:00 pm50 °FPassing clouds.9 mph62%30.24 "HgN/A
10:30 pm50 °FPassing clouds.8 mph62%30.24 "HgN/A
10:00 pm50 °FPassing clouds.9 mph62%30.24 "HgN/A
9:30 pm52 °FPassing clouds.10 mph58%30.24 "HgN/A
9:00 pm52 °FPassing clouds.9 mph62%30.24 "HgN/A
8:30 pm52 °FPassing clouds.10 mph62%30.24 "HgN/A
8:00 pm52 °FPassing clouds.10 mph62%30.21 "HgN/A
7:30 pm52 °FPassing clouds.12 mph62%30.21 "HgN/A
7:00 pm52 °FPassing clouds.10 mph67%30.21 "HgN/A
6:30 pm54 °FPassing clouds.10 mph63%30.21 "HgN/A
6:00 pm54 °FPassing clouds.10 mph63%30.18 "HgN/A
5:30 pm61 °FPassing clouds.16 mph55%30.18 "HgN/A
5:00 pm61 °FPassing clouds.18 mph55%30.18 "HgN/A
4:30 pm61 °FScattered clouds.18 mph55%30.18 "HgN/A
4:00 pm61 °FPartly sunny.20 mph59%30.18 "HgN/A
3:30 pm63 °FPartly sunny.20 mph56%30.18 "HgN/A
3:00 pm61 °FPartly sunny.17 mph55%30.18 "HgN/A
2:30 pm61 °FPartly sunny.16 mph55%30.18 "HgN/A
2:00 pm63 °FPartly sunny.16 mph49%30.18 "HgN/A
1:30 pm63 °FPartly sunny.15 mph49%30.18 "HgN/A
1:00 pm61 °FScattered clouds.9 mph45%30.18 "HgN/A
12:30 pm59 °FScattered clouds.9 mph45%30.18 "HgN/A
12:00 pm57 °FBroken clouds.9 mph48%30.21 "HgN/A
11:30 am57 °FPartly sunny.10 mph48%30.21 "HgN/A
11:00 am55 °FPartly sunny.9 mph51%30.21 "HgN/A
10:30 am54 °FPartly sunny.9 mph54%30.21 "HgN/A
10:00 am54 °FScattered clouds.9 mph54%30.21 "HgN/A
9:30 am52 °FScattered clouds.10 mph58%30.21 "HgN/A
9:00 am50 °FScattered clouds.12 mph62%30.21 "HgN/A
Weather by CustomWeather, © 2016

See weather overviewHow to use our weather pages